RH
25 23 19 16 15 17 17 16 15 14 14 14 14 15 13 15 18 16 16 16 14 13 12 12 13 12 19 23 29 37 37 38 47 58 55 47 52 57 56 54 48 44 44 42 43 44 47 48 47 48 48 48 47 46 44 43 43 43 46 51 53 54 56 59 62 59 57 56 55 56 54 51 49 46 41 37 36 35 33 32 31 30 32 33 31 32
25 22 18 16 17 18 18 16 16 15 15 15 14 15 14 16 19 17 16 16 14 14 13 13 13 14 17 20 26 35 39 38 44 56 59 56 61 66 63 53 46 47 47 46 47 47 51 53 50 48 50 50 50 50 48 45 45 46 49 54 58 60 61 65 68 66 64 63 60 57 53 52 49 45 43 40 36 33 30 29 28 29 30 30 29 30
23 21 19 18 18 20 20 18 17 17 16 16 15 16 16 17 19 18 16 15 15 14 13 14 13 15 18 18 22 30 39 40 40 46 49 50 60 66 58 48 44 48 49 47 48 49 54 57 56 54 54 54 56 57 50 45 48 52 54 58 63 65 63 64 66 69 69 66 62 58 55 54 51 46 42 39 36 30 28 28 28 28 30 30 31 32
23 21 20 21 21 21 22 21 20 19 18 17 16 17 18 18 18 19 17 15 16 14 13 15 15 15 18 19 20 26 37 42 39 38 39 42 51 59 57 49 45 48 50 49 48 53 60 63 63 61 58 59 61 58 52 49 51 54 56 62 67 68 66 63 64 68 69 67 65 62 58 54 49 42 35 35 33 29 29 29 29 30 31 32 33 34
23 21 22 23 22 21 22 23 22 21 20 19 17 17 18 19 17 19 20 17 15 14 14 17 19 18 19 21 20 23 33 42 43 39 38 37 42 56 66 61 53 49 51 53 54 61 68 71 68 62 60 64 63 60 57 53 51 51 52 58 65 69 69 65 62 64 65 67 68 63 55 48 42 36 33 35 34 31 31 31 32 34 34 34 33 33
25 24 23 22 22 21 22 23 23 22 21 20 19 16 17 19 17 18 20 18 16 15 13 16 22 19 17 20 21 22 30 39 44 44 42 39 41 55 63 56 52 52 56 65 69 68 73 77 70 62 66 70 66 63 60 54 51 51 51 54 59 64 67 66 63 62 61 64 67 63 53 41 36 34 35 37 36 34 35 34 36 36 35 35 35 33
28 26 24 21 22 23 23 23 22 21 20 20 19 16 15 17 19 19 19 18 17 16 13 15 21 21 18 19 19 22 31 36 41 45 47 46 47 53 50 45 52 62 68 76 77 72 78 82 70 64 71 73 70 67 61 56 54 54 55 59 63 64 66 67 64 62 58 58 63 61 49 38 36 37 36 37 37 37 38 38 39 37 35 36 36 35
27 28 25 21 23 26 23 23 21 20 20 20 18 16 16 18 20 20 19 19 17 16 15 15 17 21 22 19 19 22 31 37 37 42 49 49 48 47 40 41 57 73 76 75 77 76 80 83 73 67 71 71 70 67 62 60 59 58 59 62 66 68 69 68 65 62 57 56 63 59 45 38 38 37 36 35 35 36 37 38 38 37 36 37 37 38
27 27 25 22 24 25 23 23 22 20 21 19 18 17 17 18 20 20 19 18 19 18 20 20 15 17 21 22 24 23 26 34 36 39 48 49 44 41 39 44 58 71 71 68 75 78 76 81 79 69 67 69 69 66 66 68 66 65 64 63 65 68 70 70 66 61 58 58 62 56 43 38 38 37 38 37 35 35 36 37 38 38 38 39 39 40
28 25 26 26 24 23 23 23 22 20 20 18 19 19 17 19 20 19 19 18 19 19 22 25 19 14 16 21 27 26 22 27 32 38 46 48 45 45 48 53 58 62 60 61 68 68 63 71 77 70 67 70 70 69 71 72 70 68 66 65 67 69 69 68 64 61 62 64 60 51 44 39 38 38 39 38 38 38 38 39 40 40 40 41 40 40
28 25 30 31 25 22 23 24 22 19 19 18 21 22 18 20 21 20 19 19 20 19 18 25 26 18 16 19 26 28 24 22 27 34 40 45 46 48 54 57 55 54 56 59 61 59 56 59 66 69 70 70 68 68 69 68 68 68 66 67 70 68 66 66 67 67 69 68 59 49 44 40 37 36 35 36 39 39 39 40 40 42 42 42 41 39
31 29 31 33 27 25 25 24 22 19 19 19 20 22 21 21 22 21 21 20 21 18 15 22 29 25 18 17 23 27 24 22 26 30 34 40 43 46 56 60 55 54 58 60 59 58 57 54 56 62 65 67 65 65 66 66 68 68 66 68 68 64 63 66 70 70 67 64 56 48 42 38 37 36 35 37 39 39 39 41 43 45 45 43 41 40
35 34 33 34 29 26 26 24 23 21 19 19 21 23 23 23 23 23 22 21 20 18 16 19 23 23 19 15 19 24 23 21 23 27 31 37 39 42 52 56 54 56 57 57 58 59 54 49 53 55 55 59 63 64 63 63 68 69 65 64 62 60 61 63 63 66 65 60 53 47 41 38 39 38 38 39 40 40 41 44 46 46 45 43 42 42
37 36 33 34 30 26 26 28 28 22 17 18 20 21 21 23 26 26 23 21 19 18 18 18 17 19 20 17 18 23 26 23 22 25 30 36 36 40 51 53 53 57 56 53 54 56 50 45 49 52 50 52 57 61 62 62 63 63 62 60 58 57 57 57 55 60 65 62 55 50 43 41 41 39 40 41 41 42 44 47 47 46 46 45 43 43
36 36 33 33 29 24 27 31 29 22 18 20 20 19 20 22 24 24 21 20 19 18 19 19 17 17 20 19 17 20 27 27 22 22 28 34 35 42 54 55 52 57 59 56 56 56 50 44 48 52 51 53 55 57 61 62 61 60 61 59 58 57 57 57 54 55 62 63 59 54 47 45 44 41 43 42 41 44 48 49 49 47 46 44 42 42
31 34 33 32 29 26 29 32 29 23 21 21 19 19 19 20 23 22 20 21 22 22 22 21 18 16 18 22 19 18 25 27 22 21 27 34 38 47 55 54 53 58 60 60 62 62 54 47 50 54 54 57 59 59 62 63 64 65 63 60 59 59 59 60 55 53 59 64 61 55 50 48 45 43 44 43 44 48 50 50 48 45 42 39 36 38
32 35 32 30 30 29 30 34 32 25 22 22 20 17 16 20 26 26 23 23 26 27 24 21 19 17 18 22 21 18 21 24 23 22 25 31 38 48 53 52 54 58 57 58 61 61 55 50 51 53 55 59 59 61 65 65 66 68 64 61 62 61 60 61 56 54 57 60 58 54 50 49 47 45 46 46 47 50 51 50 45 40 39 38 34 35
36 38 35 31 30 30 31 36 37 30 26 25 21 18 20 23 27 27 26 26 27 27 24 21 20 18 17 19 22 21 20 23 27 24 21 23 29 40 49 49 49 52 51 54 58 57 53 51 51 52 55 59 58 60 64 64 65 67 63 59 62 61 61 62 59 59 59 57 56 54 51 50 49 47 47 48 50 51 52 49 42 38 38 37 33 35
38 41 42 36 30 30 31 34 37 33 29 29 25 22 25 26 25 26 29 28 27 25 24 23 23 20 16 16 21 26 25 23 24 24 20 19 21 27 37 41 41 44 46 49 54 54 51 50 50 53 55 58 59 60 61 60 61 64 62 59 61 61 61 63 64 64 61 56 57 57 54 52 51 49 49 50 51 53 51 45 40 37 36 34 33 35
38 42 46 38 31 34 31 28 32 31 28 30 31 27 25 26 25 26 30 31 28 25 24 29 31 24 16 14 19 27 29 23 20 21 19 20 21 20 25 32 35 40 45 48 53 53 50 50 51 53 55 57 59 60 59 57 57 59 59 60 62 62 62 63 65 65 61 58 58 58 57 55 53 51 51 52 53 53 48 42 37 35 33 33 33 33
38 40 48 39 31 34 31 26 27 30 27 26 30 30 24 24 26 28 31 32 30 26 23 27 30 24 19 15 16 24 30 27 21 20 19 22 23 19 23 33 35 39 45 50 54 53 50 51 53 53 54 55 58 59 57 55 56 58 59 60 64 65 63 63 64 64 62 60 60 59 58 56 54 53 53 54 54 51 44 38 35 34 33 32 32 31
40 42 49 40 30 28 27 26 26 32 32 24 25 31 27 26 30 32 34 33 32 28 25 23 22 24 26 20 15 22 31 30 24 21 21 24 25 22 28 37 36 38 47 51 53 52 50 51 54 53 52 52 54 56 55 55 56 57 60 61 65 68 67 65 65 64 63 61 61 60 58 56 55 54 55 55 51 46 41 37 35 34 33 32 32 33
42 44 47 38 30 26 24 27 27 31 34 28 27 31 31 31 31 31 32 32 29 27 26 23 20 27 34 26 19 25 31 32 29 26 27 31 32 32 36 41 39 42 49 50 51 52 52 53 54 54 53 53 54 55 55 56 58 60 62 63 65 69 68 66 65 64 62 61 59 58 57 56 55 55 55 53 48 43 39 37 35 34 33 32 34 35
42 47 46 37 33 28 26 31 29 27 30 30 28 27 28 29 27 26 29 31 29 26 25 25 26 35 41 32 25 29 34 35 36 36 37 40 41 41 41 42 41 45 50 50 51 53 54 53 54 54 53 54 56 56 55 56 59 62 63 62 64 67 67 66 64 62 61 59 58 57 58 56 54 54 52 48 45 42 39 37 35 34 33 34 35 37
41 46 47 40 37 35 34 33 29 25 23 24 23 22 24 29 30 29 30 31 33 29 25 26 31 38 43 35 28 30 34 38 41 40 40 40 41 42 42 41 41 45 47 46 49 54 55 52 51 52 54 56 57 57 56 56 59 62 64 64 66 67 67 65 64 64 63 61 59 60 60 57 55 54 51 47 46 42 38 36 35 34 34 36 38 39
38 40 42 38 34 33 32 28 25 24 23 26 28 24 25 31 33 30 29 30 31 29 25 26 32 42 46 40 34 32 34 40 44 41 38 37 39 39 38 39 40 42 42 41 45 50 52 51 50 51 54 57 57 57 56 58 62 65 66 66 66 65 65 64 65 66 66 65 65 66 65 62 59 55 51 48 46 41 37 35 34 34 36 38 40 40
35 35 36 35 30 26 25 26 26 25 25 29 30 26 24 28 30 31 30 29 28 28 28 25 30 45 50 44 37 35 37 42 43 39 35 35 37 37 36 37 40 41 40 41 45 48 49 49 48 51 54 57 58 59 58 59 62 64 65 65 65 65 65 65 65 66 67 67 69 70 68 65 61 56 52 50 46 41 38 36 35 36 39 40 41 42
36 35 32 33 34 31 29 28 27 25 25 26 25 24 24 24 28 32 32 28 27 30 33 29 28 34 42 44 40 37 40 43 40 36 33 31 32 33 35 38 41 42 43 47 49 47 47 47 47 51 55 57 59 60 60 60 61 63 64 64 64 65 66 68 69 69 71 71 71 70 68 64 57 52 51 50 46 42 39 38 38 40 42 43 44 46
36 35 31 33 37 38 36 32 28 26 26 27 26 26 26 25 27 31 32 30 29 31 32 32 30 25 29 41 47 45 46 44 38 34 31 31 32 31 35 39 41 42 46 55 58 50 46 48 49 52 55 58 60 61 61 62 64 66 67 66 66 66 67 70 72 74 76 76 74 71 65 58 51 47 47 47 45 43 42 41 42 44 45 47 48 47
37 35 33 35 39 40 39 36 31 29 27 26 28 27 28 28 27 29 33 33 32 33 31 33 36 29 24 36 49 51 46 40 36 32 29 32 35 35 37 39 39 43 50 59 62 53 47 51 54 54 56 59 61 62 61 63 64 66 69 71 72 70 69 71 74 77 80 80 76 70 62 55 51 47 47 48 47 46 45 45 46 48 49 50 49 47
38 38 35 36 41 46 46 41 37 36 31 26 27 28 29 30 29 30 34 35 35 36 33 34 39 34 26 34 48 53 47 38 33 29 29 33 36 38 39 37 40 51 56 58 60 55 51 55 59 58 58 59 59 60 60 62 63 64 68 73 76 76 73 71 74 79 81 79 74 67 62 60 57 53 53 55 54 52 50 49 51 52 53 53 50 47
38 39 37 39 44 50 53 51 45 42 39 32 29 30 31 32 31 30 32 34 35 35 35 38 40 38 37 39 43 47 47 40 33 30 28 32 37 41 41 37 40 49 51 49 52 52 52 57 61 59 58 57 58 59 60 60 62 64 66 70 75 80 80 75 72 76 78 77 72 67 65 66 63 59 59 59 57 54 52 53 55 55 56 54 51 48
41 42 40 40 43 47 56 60 57 55 50 41 33 32 32 33 34 34 34 35 36 35 37 39 36 36 46 50 44 41 41 38 35 31 28 33 43 48 44 40 41 43 43 44 47 50 54 61 64 62 60 58 57 59 60 61 63 67 70 73 77 84 86 78 73 75 77 73 66 62 63 64 63 61 59 57 56 55 54 56 57 57 56 54 51 49
44 46 46 44 41 44 55 62 63 63 56 47 41 36 34 34 34 35 35 36 38 36 35 37 33 33 45 55 49 40 37 35 33 31 29 34 43 47 43 43 45 44 44 46 50 55 62 67 66 63 61 58 57 58 60 63 67 70 74 78 82 86 87 81 75 75 74 68 62 61 63 63 61 60 57 57 57 57 57 58 58 58 58 56 55 52
44 45 48 47 41 46 57 60 60 61 58 57 55 47 42 40 38 38 38 36 37 36 34 35 36 38 49 59 52 40 37 38 34 31 32 34 37 42 45 46 47 49 51 55 59 64 65 63 61 61 62 61 60 61 64 68 73 74 75 76 78 79 79 75 70 68 67 63 62 64 65 64 63 61 59 59 60 59 60 60 59 60 61 61 60 58
41 43 47 47 43 53 65 61 57 58 60 64 62 51 45 46 45 45 44 41 38 38 36 36 37 41 52 61 56 45 41 41 36 33 37 39 38 42 47 47 48 51 55 60 64 68 65 60 60 65 70 72 73 74 76 76 78 78 76 73 72 70 69 67 65 65 66 65 65 66 66 65 64 63 61 61 62 61 62 61 62 63 63 62 62 61
42 43 48 50 46 53 63 61 56 58 62 65 62 53 48 48 47 46 45 45 44 43 41 40 40 45 52 56 55 49 44 41 36 35 41 44 41 44 49 53 55 57 60 62 61 63 64 64 66 69 73 77 79 79 77 76 76 77 75 74 72 69 67 65 66 70 71 69 69 71 70 67 65 64 64 63 64 64 63 63 64 64 64 63 63 62
46 44 49 54 52 51 56 58 56 58 61 62 59 56 54 52 49 47 45 45 44 43 42 42 44 50 52 49 47 44 40 38 34 34 40 43 43 46 50 55 59 62 67 66 62 63 68 71 71 72 74 77 77 74 72 72 72 73 73 73 71 69 68 67 70 74 75 72 72 74 73 70 68 67 67 66 66 66 65 65 65 65 64 64 62 60
51 48 50 54 55 54 56 58 56 55 58 61 62 61 56 51 50 49 46 46 46 43 42 43 46 51 52 47 41 37 37 40 38 33 34 41 47 49 48 51 56 59 63 65 64 67 74 75 73 72 73 76 75 71 69 69 68 69 69 69 68 68 69 70 72 74 74 73 73 73 72 71 70 70 69 69 68 67 67 67 66 66 66 64 61 57
57 54 53 53 54 55 56 57 58 58 56 59 65 66 57 53 55 53 48 52 56 52 49 49 51 53 52 46 40 38 43 49 47 37 34 41 50 53 51 53 54 54 57 61 61 63 67 69 68 67 68 69 68 65 63 62 62 64 65 65 66 68 70 71 72 73 72 71 70 71 71 70 70 70 70 70 69 69 69 68 67 66 65 62 59 57
60 57 55 55 54 55 55 55 58 63 62 59 64 67 60 56 59 56 52 58 64 60 55 55 57 57 51 44 42 46 54 56 50 43 41 43 48 52 57 59 58 57 56 56 57 59 61 62 62 61 62 63 61 60 57 56 57 61 64 65 67 69 70 71 71 70 69 68 69 71 72 72 72 72 72 72 71 71 70 70 69 67 64 60 57 56
59 56 55 56 56 56 57 55 55 63 66 61 61 64 62 61 62 61 60 62 64 62 58 58 61 60 51 45 48 56 59 55 48 46 46 46 47 53 60 63 61 60 58 57 59 62 62 61 60 59 59 59 57 56 55 55 58 61 63 65 66 68 69 69 68 69 68 68 69 71 72 71 72 73 73 72 72 71 70 71 69 66 62 59 56 54
56 55 54 54 55 57 59 56 56 64 68 62 60 64 67 69 69 68 68 67 65 64 63 62 64 61 53 51 55 56 54 51 49 48 48 49 49 51 57 63 63 60 59 60 63 63 62 63 62 59 59 58 56 55 55 56 58 60 61 63 65 66 67 67 67 68 69 69 71 74 76 75 73 73 73 73 73 73 72 70 67 63 60 57 54 51
59 61 61 59 56 58 62 61 62 68 70 65 64 66 67 69 70 70 72 73 71 68 67 66 66 62 59 61 59 52 49 50 50 48 49 52 53 53 57 63 62 60 62 64 63 63 64 65 63 60 60 59 57 57 58 60 61 62 63 65 66 66 66 67 69 70 70 72 76 79 81 80 78 76 76 75 75 74 71 67 63 59 56 53 51 50
65 64 65 68 67 65 65 68 68 69 69 66 65 66 64 64 68 69 70 72 71 69 68 67 65 61 62 64 58 51 50 51 50 50 51 53 56 59 63 62 59 60 66 66 64 65 66 65 64 63 62 60 59 60 62 64 65 66 66 66 66 67 67 67 69 72 73 75 78 79 80 81 80 78 78 77 75 71 66 62 58 54 53 51 49 48
65 61 61 70 76 70 68 70 69 67 67 66 64 64 61 60 64 67 68 68 67 66 65 66 64 62 63 64 58 53 54 53 51 52 53 53 58 64 67 64 62 66 70 68 68 69 68 66 66 65 64 63 61 61 64 66 66 67 67 67 67 66 66 67 69 73 74 75 76 78 80 81 79 77 76 73 69 65 61 57 54 52 51 49 48 48
60 57 58 67 71 66 65 67 65 63 65 64 62 62 62 59 60 61 62 63 64 63 64 66 66 65 65 64 59 56 56 55 54 55 56 58 64 67 67 66 68 72 73 71 71 71 69 67 67 67 66 64 62 62 65 67 68 67 66 66 67 66 67 69 71 74 76 76 77 79 81 79 76 74 71 67 62 60 57 54 52 50 49 48 48 49
59 54 57 63 65 64 63 63 62 61 62 61 60 61 61 60 59 59 58 60 61 60 61 64 65 66 66 64 63 61 60 59 58 59 61 66 69 70 69 72 74 75 74 73 73 72 70 69 68 66 65 64 63 65 68 69 69 68 67 67 68 68 69 72 73 75 76 76 76 78 77 74 71 67 64 61 59 56 53 52 50 49 47 48 49 49
64 59 58 58 64 72 71 65 61 60 59 58 59 60 61 60 61 60 59 59 58 57 57 60 62 64 65 64 63 63 63 62 61 60 64 70 70 68 69 73 74 74 75 74 73 71 70 68 67 66 66 66 66 68 69 69 69 69 69 70 70 70 71 73 74 74 74 74 74 74 71 67 65 62 60 58 56 54 53 53 51 49 49 51 51 50
63 68 67 62 65 74 75 70 67 66 64 61 59 60 62 62 62 61 60 59 58 57 57 58 60 62 63 63 63 63 64 65 63 62 66 71 71 68 70 72 73 75 78 76 73 72 70 67 67 68 68 68 69 69 69 70 70 70 72 73 73 73 74 74 73 73 74 74 72 70 66 63 62 62 60 58 55 53 52 51 50 50 50 51 50 45
63 70 73 71 73 74 71 70 71 72 71 67 63 63 62 61 60 61 60 60 60 60 59 60 61 62 63 64 64 63 64 65 64 63 68 72 71 70 72 73 72 75 78 77 77 76 73 69 69 70 70 69 70 70 70 71 72 73 74 75 76 76 76 75 75 75 74 71 69 66 64 62 61 60 57 53 50 48 46 46 47 47 46 43 38 33